Погода в Перевальном

Россия / Ставропольский край     44°23′53″N   42°47′27″E
темп.,
°C
ветер,
м/с
пор.,
м/с
влажн.,
%
обл.,
%
осадки,
мм/ч
давл.,
гПа
погр.,
м
12 мая, ср
ср1200:00+8вюв377229 0.0 1016220
03:00+6в2383100 0.0 101767
06:00+6вюв12835 0.0 101767
09:00+12в33640 0.0 1017697
12:00+16в56565 0.0 10161175
15:00+17вюв67564 0.0 10151363
18:00+16вюв59695 0.0 1014548
21:00+11вюв4118086 0.0 1014210
13 мая, чт
чт1300:00+10вюв49835 0.0 1013154
03:00+9юв3390100 0.0 101429
06:00+11юв12855 0.0 101475
09:00+17вюв45670 0.0 1013539
12:00+21вюв55580 0.0 1014889
15:00+22вюв56555 0.0 10131003
18:00+20вюв58685 0.0 1014358
21:00+15вюв49821 0.0 1014131
14 мая, пт
пт1400:00+14вюв358738 0.0 101480
03:00+13вюв3488100 0.0 101457
06:00+14вюв35880 0.0 1014120
09:00+21вюв45670 0.0 1013407
12:00+26вюв55551 0.0 1012717
15:00+26в66550 0.0 1012864
18:00+23вюв59694 0.0 1011318
21:00+18вюв35775 0.0 101262
15 мая, сб
сб1500:00+15в33870 0.0 101242
03:00+14в22885 0.0 101211
06:00+17ююз11845 0.0 101231
09:00+22зсз466230 0.0 1012539
12:00+26ссз45531 0.0 10121164
15:00+27с44510 0.0 10121480
18:00+25св2365100 0.0 101273
21:00+19вюв2278100 0.0 101211
16 мая, вс
вс1600:00+18в2279100 0.0 101111
03:00+16всв2285100 0.0 101011
06:00+16в226898 0.0 101059
09:00+20в455812 0.0 1009353
12:00+24в810600 0.0 1007852
15:00+26вюв711484 0.0 10051194
18:00+23вюв7145949 0.0 1003502
21:00+19вюв8164952 0.0 1005460